Location: Caltech
(34.1382°N, 118.1253°W)
Time: 06:12:14
(UTC-08:00)

Cosmos 1125 Rocket - Visible Passes

Search period start: 22 December 2014 00:00
Search period end: 01 January 2015 00:00
Orbit: 758 x 782 km, 74.0° (Epoch: 20 December)

Date Brightness Start Highest point End Pass type
(mag) Time Alt. Az. Time Alt. Az. Time Alt. Az.
22 Dec 5.9 05:47:33 10° SSE 05:51:49 26° E 05:56:07 10° NE visible
22 Dec 5.9 18:01:10 10° NW 18:05:29 26° W 18:09:47 10° SSW visible
23 Dec 6.6 05:12:53 10° SE 05:15:36 14° E 05:18:19 10° ENE visible
23 Dec 4.8 17:24:07 10° NNW 17:29:11 46° WSW 17:34:11 10° S visible
24 Dec 3.6 06:15:22 10° SSW 06:20:37 86° ESE 06:25:55 10° NNE visible
25 Dec 4.6 05:39:12 10° S 05:44:12 47° ESE 05:49:16 10° NNE visible
25 Dec 6.7 17:55:09 10° WNW 17:57:47 14° W 18:00:25 10° SW visible
26 Dec 5.7 05:03:35 10° SSE 05:07:54 26° E 05:12:15 10° NE visible
26 Dec 6.1 17:17:17 10° NW 17:21:34 25° W 17:25:49 10° SSW visible
27 Dec 6.5 04:28:51 10° SE 04:31:40 15° E 04:34:29 10° ENE visible
27 Dec 3.6 06:08:06 10° SSW 06:13:12 53° WNW 06:18:23 10° N visible
28 Dec 3.5 05:31:27 10° SSW 05:36:42 87° ESE 05:42:01 10° NNE visible
29 Dec 4.4 04:55:15 10° S 05:00:17 48° ESE 05:05:22 10° NNE visible
30 Dec 5.5 04:19:36 10° SSE 04:23:58 27° E 04:28:21 10° NE visible
30 Dec 4.3 06:01:20 10° SW 06:05:54 30° WNW 06:10:31 10° N visible
31 Dec 6.3 03:44:49 10° SE 03:47:44 15° E 03:50:39 10° ENE visible
31 Dec 3.6 05:24:10 10° SSW 05:29:17 52° WNW 05:34:27 10° N visible
